User: anonymous   Login
Location: Fort Wayne
(41.1310°N, 85.1290°W)
Time: 12:27:47
(UTC-05:00)
Language:

COSMOS 2428 - Orbit

View from above orbital plane
View from above orbital plane
View from above satellite
View from above satellite

Ground track
Ground track

The orbit data is extracted from the following two-line orbital elements,

1 31792U 07029A   17321.54235565  .00000324  00000-0  20162-3 0  9992
2 31792  70.9357  90.2513 0006373  34.3454 325.8078 14.12380926535728
Epoch (UTC): 17 November 2017 13:00:59
Eccentricity: 0.0006373
inclination: 70.9357°
perigee height: 846 km
apogee height: 856 km
right ascension of ascending node: 90.2513°
argument of perigee: 34.3454°
revolutions per day: 14.12380926
mean anomaly at epoch: 325.8078°
orbit number at epoch: 53572

The dashed part of the orbit path shows where the satellite is in the earth's shadow,  

DLR